Regional Weather Roundup
Issued by NWS

Home | Current Version | Previous Version | Text Only | Print | Product List | Glossary Off
Versions: 1 2 3 4 5 6 7 8 9 10 11 12 13 14 15 16 17 18 19 20 21 22 23 24 25 26 27 28 29 30 31 32 33 34 35 36 37 38 39 40 41 42 43 44 45 46 47 48 49 50

000
ASUS45 KTFX 281419
RWRMT
MONTANA HOURLY WEATHER ROUNDUP
NATIONAL WEATHER SERVICE GREAT FALLS MT
819 AM MDT MON JUL 28 2014

NOTE: "FAIR" INDICATES FEW OR NO CLOUDS BELOW 12000 FEET WITH NO
SIGNIFICANT WEATHER AND/OR OBSTRUCTIONS TO VISIBILITY.

* THESE STATIONS ARE NOT UNDER NWS QUALITY CONTROL. THEY DO NOT
   REPORT WEATHER SUCH AS PRECIPITATION OR FOG.

MTZ001>007-043-281500-
WEST OF THE DIVIDE
CITY           SKY/WX    TMP DP  RH WIND       PRES   REMARKS
KALISPELL      PTCLDY    61  48  62 N8        30.20R
MISSOULA       PTSUNNY   61  45  56 S6        30.22R
BUTTE          CLOUDY    55  37  51 CALM      30.35R
MULLAN PASS    PTSUNNY   64  37  37 N3        30.36R
* ESSEX        N/A       52  41  66 SE6G11     N/A
* LINCOLN      N/A       45  42  89 N/A        N/A
* LOOKOUT PASS N/A       62  47  58 N/A        N/A
* POLSON       N/A       58  48  70 NE2        N/A
* RONAN APT    PTCLDY    55  50  83 N/A        N/A
* SEELEY LAKE  N/A       47  40  77 N2         N/A
* THOMP F APT  PTSUNNY   64  32  30 N3G10      N/A
* YAAK HILL    N/A       58  48  70 SE2        N/A
$$

MTZ008-052>055-281500-
SOUTHWEST MONTANA
CITY           SKY/WX    TMP DP  RH WIND       PRES   REMARKS
BOZEMAN        PTSUNNY   63  43  48 CALM      30.29S
DILLON         PTSUNNY   54  43  67 SW7       30.31R
W YELLOWSTONE  PTCLDY    50  39  66 CALM      30.43S
* THREE FORKS  PTSUNNY   61  61 100 N/A        N/A
* BOULDER HILL N/A       61  34  36 SW2G8      N/A
* RAYNOLDS PAS N/A       54  35  49 SE6        N/A
* WHITEHALL    N/A       58  36  44 SW2G10     N/A
* WISE RIVER   N/A       46  36  68 SW1        N/A
$$

MTZ009>010-012-014-046-048-049-054-281500-
EAST SLOPES AND CENTRAL MONTANA
CITY           SKY/WX    TMP DP  RH WIND       PRES   REMARKS
CUT BANK       PTSUNNY   59  48  67 CALM      30.27R
GREAT FALLS    CLOUDY    63  43  48 CALM      30.25R
HELENA         PTSUNNY   63  41  45 CALM      30.29R
MALMSTROM AFB  PTSUNNY   64  43  47 N3        30.26R
* CONRAD       PTSUNNY   59  54  84 N/A        N/A
* DEARBORN     N/A       59  42  53 W2         N/A
* EAST GLACIER N/A       52  39  61 NW8        N/A
* ROGERS PASS  N/A       61  47  60 N/A        N/A
* SAINT MARY   N/A       42  40  93 S3         N/A
* SWEET GRASS  N/A       65  44  47 S19        N/A
* WHITE SULPH  N/A       60  41  50 E6G12      N/A
$$

MTZ011-013-016-021-035-040-045-047-050-051-281500-
NORTH CENTRAL MONTANA
CITY           SKY/WX    TMP DP  RH WIND       PRES   REMARKS
HAVRE          PTCLDY    64  48  56 E6        30.24R
LEWISTOWN      PTCLDY    68  45  44 SE12      30.30R
* CHINOOK      SUNNY     63  52  68 E12       30.24S
* FORT BENTON  PTSUNNY   68  43  40 NE7       30.24S
* CHESTER      N/A       67  44  44 SE1        N/A
* DENTON       N/A       70  46  42 SE3        N/A
* JUDITH GAP   N/A       61  48  62 S3         N/A
* LOMA         N/A       69  44  41 E11        N/A
$$

MTZ017>020-022>027-061-062-281500-
NORTHEAST MONTANA
CITY           SKY/WX    TMP DP  RH WIND       PRES   REMARKS
GLASGOW        SUNNY     63  52  68 E10       30.28S
GLENDIVE       SUNNY     63  52  68 SE5       30.33S
JORDAN         SUNNY     63  46  54 CALM      30.28S
SIDNEY         SUNNY     61  52  72 CALM      30.33S
WOLF POINT     SUNNY     61  52  72 E6        30.30S
* BEAVER HILL  N/A       61  53  75 SE10       N/A
* CIRCLE       N/A       64  56  75 N/A        N/A
* LINDSAY DVD  N/A       58  53  84 SE5        N/A
* NAVAJO       N/A       58  52  81 S2         N/A
$$

MTZ028>042-056>058-281500-
SOUTHCENTRAL AND SOUTHEAST MONTANA
CITY           SKY/WX    TMP DP  RH WIND       PRES   REMARKS
BAKER          SUNNY     61  54  78 SE8       30.34S
BILLINGS       SUNNY     64  43  47 N3        30.29R
LIVINGSTON     PTCLDY    59  39  48 NW3       30.34R
MILES CITY     SUNNY     66  54  65 SE7       30.30R
* LAUREL APT   SUNNY     63  43  48 N/A        N/A
* ROUNDUP APT  SUNNY     63  43  48 N/A        N/A
* ALZADA       N/A       59  53  81 E4         N/A
* HYSHAM       N/A       69  48  47 E6G12      N/A
* LAME DEER    N/A       63  48  58 SE7G12     N/A
* REED POINT   N/A       58  45  62 W6         N/A
* ROSCOE HILL  N/A       64  39  40 SW2        N/A
$$

REGIONAL REPORTS...DAKOTAS
CITY           SKY/WX    TMP DP  RH WIND       PRES   REMARKS
WILLISTON      SUNNY     61  54  78 SE3       30.33R
DICKINSON      SUNNY     61  54  78 S10       30.33S
CROSBY         PTSUNNY   59  59 100 S3        30.34S
TIOGA          CLOUDY    55  55 100 CALM      30.37R
WATFORD CITY   SUNNY     59  54  84 CALM      30.31F
BISMARCK       SUNNY     59  52  78 CALM      30.35S
GRAND FORKS    CLOUDY    63  55  75 NW7       30.27S
FARGO          CLOUDY    63  55  75 NW7       30.28R
BUFFALO SD     SUNNY     61  54  78 SE8       30.29S
RAPID CITY     PTCLDY    63  54  73 SE7       30.35S
$$

REGIONAL REPORTS...WYOMING/IDAHO/WASHINGTON
CITY           SKY/WX    TMP DP  RH WIND       PRES   REMARKS
GILLETTE       SUNNY     64  50  61 S20       30.34F
SHERIDAN       SUNNY     61  48  62 N3        30.31R
YELLOWSTONE LA PTCLDY    52  41  66 CALM      30.53S
SALMON         CLOUDY    54  45  72 CALM      30.24R
MULLAN PASS    PTSUNNY   64  37  37 N3        30.36S
SAND POINT     CLOUDY    61  50  67 NE3       30.16S
SPOKANE        PTSUNNY   72  45  38 NE8       30.11R
$$

REGIONAL REPORTS...ALBERTA
CITY           SKY/WX    TMP DP  RH WIND       PRES   REMARKS
CALGARY        PTSUNNY   57  50  78 CALM      30.27R
LETHBRIDGE     PTSUNNY   59  54  84 SW6       30.25R
MEDICINE HAT   SUNNY     64  52  65 NE5       30.24R
EDMONTON       SUNNY     61  55  81 SE7       30.22S
WATERTON GATE  N/A       52  46  80 W3         N/A
CARDSTON       N/A       54  50  86 SE3        N/A
MILK RIVER     N/A       66  45  47 S12        N/A
$$

REGIONAL REPORTS...SASKATCHEWAN
CITY           SKY/WX    TMP DP  RH WIND       PRES   REMARKS
SWIFT CURRENT  SUNNY     63  57  81 SW6       30.29S
MOOSE JAW      SUNNY     61  57  87 SE3       30.30R
REGINA         SUNNY     61  55  81 SE8       30.31S
VAL MARIE      N/A       59  55  87 NE3        N/A
ASSINIBOIA     N/A       61  54  78 S3         N/A
CORONACH       N/A       59  54  84 SE2        N/A

$$



USA.gov is the U.S. government's official web portal to all federal, state and local government web resources and services.